Regional Weather Roundup
Issued by NWS

Home | Current Version | Previous Version | Graphics & Text | Print | Product List | Glossary On
Versions: 1 2 3 4 5 6 7 8 9 10 11 12 13 14 15 16 17 18 19 20 21 22 23 24 25 26 27 28 29 30 31 32 33 34 35 36 37 38 39 40 41 42 43 44 45 46 47 48 49 50
000
ASUS43 KLSX 040107
RWRMO

WEATHER SUMMARY FOR MISSOURI
NATIONAL WEATHER SERVICE SPRINGFIELD MO
800 PM CDT SUN MAY 03 2015

NOTE: "FAIR" INDICATES FEW OR NO CLOUDS BELOW 12,000 FEET WITH NO
       SIGNIFICANT WEATHER AND/OR OBSTRUCTIONS TO VISIBILITY.
       CURRENT SKY AND/OR WEATHER CONDITIONS ARE NOT AVAILABLE FOR
       CHILLICOTHE AND FARMINGTON.

MOZ001>031-035>038-043-044-053-054-040200-
...NORTHERN AND WESTERN MISSOURI...

CITY           SKY/WX    TMP DP  RH WIND       PRES   REMARKS
KANSAS CTY INT MOCLDY    75  59  57 S18       29.83R
KANSAS C DTWN  PTCLDY    79  57  46 S15G25    29.83R
LEE`S SUMMIT   MOCLDY    76  57  51 S12G24    29.86R
ST JOSEPH      MOCLDY    78  59  51 S12       29.80R
CHILLICOTHE      N/A     78  58  49 S12G20    29.86R
KIRKSVILLE     PTCLDY    75  58  55 S8        29.87R

$$
MOZ066>068-077>081-088>096-101>105-040200-
...SOUTHWEST MISSOURI...

CITY           SKY/WX    TMP DP  RH WIND       PRES   REMARKS
SPRINGFIELD    CLOUDY    73  55  53 S9        29.94R
JOPLIN         MOCLDY    75  57  53 S9        29.94R

$$
MOZ032>034-039>042-045>050-055>058-069>072-040200-
...CENTRAL MISSOURI...

CITY           SKY/WX    TMP DP  RH WIND       PRES   REMARKS
COLUMBIA       MOCLDY    74  56  53 S8        29.91R
JEFFERSON CITY MOCLDY    79  54  41 S9        29.90S
ROLLA          PTCLDY    74  52  46 S12       29.94R
SEDALIA        MOCLDY    75  56  51 S10       29.90F
WHITEMAN AFB   MOCLDY    71  59  64 S10       29.87S
WARRENSBURG    MOCLDY    73  55  53 S12       29.87S
OSAGE BEACH    MOCLDY    75  54  46 S5        29.93R

$$
MOZ051-052-059>065-040200-
...EAST CENTRAL MISSOURI...

CITY           SKY/WX    TMP DP  RH WIND       PRES   REMARKS
ST LOUIS INTL  CLOUDY    80  48  32 S9        29.94S
SPIRIT OF STL  CLOUDY    75  52  44 S6        29.93R
ST CHARLES     CLOUDY    76  49  38 S12       29.92S

$$
MOZ072>076-082>087-097>100-106>115-040200-
...SOUTH CENTRAL AND SOUTHEAST MISSOURI...

CITY           SKY/WX    TMP DP  RH WIND       PRES   REMARKS
CAPE GIRARDEAU PTCLDY    70  48  45 S7        30.01R
FARMINGTON     PTCLDY    72  48  43 S8        30.03S
POPLAR BLUFF   PTCLDY    74  52  46 S8        29.99S
WEST PLAINS    PTCLDY    73  52  47 S6        30.01R

$$



USA.gov is the U.S. government's official web portal to all federal, state and local government web resources and services.